| time (UTC) | temp C | wind direction | speed KPH | gust KPH | rain 1hr cm | rain 24hr cm | rain mn cm | humidity % | barometer mb |
| 20260902103122 | 18 | 141 | 0.0 | 0.0 | 0.00 | 0.00 | 0.00 | 97 | 1015.1 |
| 20260902101624 | 18 | 141 | 0.0 | 0.0 | 0.00 | 0.00 | 0.00 | 97 | 1015.5 |
| 20260902100123 | 18 | 141 | 0.0 | 0.0 | 0.00 | 0.00 | 0.00 | 97 | 1015.4 |
| 20260902094641 | 18 | 143 | 0.0 | 0.0 | 0.00 | 0.10 | 0.00 | 97 | 1015.6 |
| 20260902093137 | 18 | 143 | 0.0 | 0.0 | 0.00 | 0.10 | 0.00 | 97 | 1015.7 |
| 20260902091633 | 18 | 143 | 0.0 | 0.0 | 0.00 | 0.10 | 0.00 | 97 | 1015.5 |
| 20260902090129 | 18 | 143 | 0.0 | 0.0 | 0.00 | 0.10 | 0.00 | 97 | 1015.7 |
| 20260902084624 | 18 | 143 | 0.0 | 0.0 | 0.00 | 0.10 | 0.00 | 97 | 1015.8 |
| 20260902083125 | 18 | 143 | 0.0 | 0.0 | 0.00 | 0.10 | 0.00 | 97 | 1015.9 |
| 20260902081637 | 18 | 143 | 0.0 | 0.0 | 0.00 | 0.10 | 0.00 | 97 | 1015.7 |
| 20260902080126 | 18 | 143 | 0.0 | 0.0 | 0.00 | 0.10 | 0.00 | 97 | 1015.6 |
| 20260902074645 | 18 | 143 | 0.0 | 0.0 | 0.00 | 0.18 | 0.00 | 97 | 1015.7 |
| 20260902073145 | 18 | 143 | 0.0 | 0.0 | 0.00 | 0.18 | 0.00 | 97 | 1015.6 |
| 20260902071635 | 18 | 143 | 0.0 | 0.0 | 0.00 | 0.18 | 0.00 | 97 | 1015.6 |
| 20260902070134 | 19 | 143 | 0.0 | 0.0 | 0.00 | 0.18 | 0.00 | 97 | 1015.4 |
| 20260902064629 | 19 | 143 | 0.0 | 0.0 | 0.00 | 0.18 | 0.00 | 97 | 1015.6 |
| 20260902063156 | 19 | 143 | 0.0 | 0.0 | 0.00 | 0.18 | 0.00 | 97 | 1015.6 |
| 20260902061638 | 19 | 143 | 0.0 | 0.0 | 0.00 | 0.18 | 0.00 | 96 | 1015.6 |
| 20260902060136 | 19 | 143 | 0.0 | 0.0 | 0.00 | 0.18 | 0.00 | 96 | 1015.6 |
| 20260902054634 | 19 | 143 | 0.0 | 0.0 | 0.00 | 0.20 | 0.00 | 96 | 1015.5 |
| 20260902053133 | 19 | 143 | 0.0 | 0.0 | 0.00 | 0.20 | 0.00 | 96 | 1015.8 |
| 20260902051652 | 19 | 143 | 0.0 | 0.0 | 0.00 | 0.20 | 0.00 | 96 | 1015.4 |
| 20260902050135 | 19 | 143 | 0.0 | 0.0 | 0.00 | 0.20 | 0.00 | 96 | 1015.5 |
| 20260902044634 | 19 | 143 | 0.0 | 0.0 | 0.00 | 0.20 | 0.00 | 96 | 1015.3 |
| 20260902043131 | 19 | 143 | 0.0 | 0.0 | 0.00 | 0.20 | 0.00 | 96 | 1015.3 |
| 20260902041623 | 20 | 143 | 0.0 | 0.0 | 0.00 | 0.20 | 0.00 | 95 | 1015.2 |
| 20260902040157 | 20 | 143 | 0.0 | 0.0 | 0.00 | 0.20 | 0.00 | 95 | 1015.1 |
| 20260902034632 | 20 | 143 | 0.0 | 0.0 | 0.00 | 0.20 | 0.20 | 95 | 1015.2 |
| 20260902033130 | 20 | 143 | 0.0 | 0.0 | 0.00 | 0.20 | 0.20 | 95 | 1015.3 |
| 20260902031626 | 20 | 143 | 0.0 | 0.0 | 0.00 | 0.20 | 0.20 | 94 | 1015.2 |
| 20260902030144 | 20 | 143 | 0.0 | 0.0 | 0.00 | 0.20 | 0.20 | 94 | 1015.1 |
| 20260902024622 | 21 | 143 | 0.0 | 0.0 | 0.00 | 0.20 | 0.20 | 93 | 1015.1 |
| 20260902023139 | 21 | 143 | 0.0 | 1.6 | 0.00 | 0.20 | 0.20 | 93 | 1015.3 |
| 20260902021633 | 21 | 143 | 0.0 | 1.6 | 0.00 | 0.20 | 0.20 | 93 | 1015.4 |
| 20260902020122 | 21 | 143 | 0.0 | 0.0 | 0.00 | 0.20 | 0.20 | 93 | 1015.2 |
| 20260902014622 | 21 | 143 | 0.0 | 0.0 | 0.00 | 0.20 | 0.20 | 93 | 1015.2 |
| 20260902013126 | 21 | 143 | 0.0 | 0.0 | 0.00 | 0.20 | 0.20 | 93 | 1015.3 |
| 20260902011645 | 21 | 143 | 0.0 | 0.0 | 0.00 | 0.20 | 0.20 | 92 | 1014.9 |
| 20260902010140 | 22 | 143 | 0.0 | 1.6 | 0.00 | 0.20 | 0.20 | 92 | 1014.9 |
| 20260902004625 | 22 | 143 | 0.0 | 1.6 | 0.00 | 0.20 | 0.20 | 92 | 1014.8 |
| 20260902003150 | 22 | 162 | 0.0 | 0.0 | 0.00 | 0.20 | 0.20 | 92 | 1014.3 |
| 20260902001627 | 22 | 162 | 0.0 | 0.0 | 0.00 | 0.20 | 0.20 | 91 | 1014.1 |
| 20260902000159 | 22 | 163 | 0.0 | 0.0 | 0.00 | 0.20 | 0.20 | 91 | 1014.0 |
| 20260901234635 | 23 | 163 | 0.0 | 0.0 | 0.00 | 0.23 | 0.20 | 90 | 1013.8 |
| 20260901233134 | 23 | 163 | 0.0 | 0.0 | 0.00 | 0.23 | 0.20 | 89 | 1014.0 |
| 20260901231626 | 23 | 164 | 0.0 | 0.0 | 0.00 | 0.23 | 0.20 | 88 | 1014.1 |
| 20260901230145 | 24 | 163 | 0.0 | 0.0 | 0.00 | 0.23 | 0.20 | 88 | 1014.0 |
| 20260901224638 | 24 | 163 | 0.0 | 0.0 | 0.00 | 0.23 | 0.20 | 87 | 1014.2 |
| 20260901223137 | 25 | 163 | 0.0 | 0.0 | 0.00 | 0.23 | 0.20 | 87 | 1014.0 |
| 20260901221633 | 25 | 170 | 0.0 | 0.0 | 0.00 | 0.23 | 0.20 | 86 | 1013.9 |
| 20260901220155 | 25 | 171 | 0.0 | 0.0 | 0.00 | 0.23 | 0.20 | 87 | 1013.8 |
| 20260901214631 | 25 | 171 | 0.0 | 0.0 | 0.00 | 0.23 | 0.20 | 86 | 1013.7 |
| 20260901213129 | 25 | 176 | 0.0 | 0.0 | 0.00 | 0.23 | 0.20 | 86 | 1013.5 |
| 20260901211624 | 25 | 177 | 0.0 | 0.0 | 0.00 | 0.23 | 0.20 | 86 | 1013.6 |
| 20260901210139 | 25 | 148 | 0.0 | 0.0 | 0.00 | 0.23 | 0.20 | 85 | 1013.8 |
| 20260901204636 | 25 | 141 | 0.0 | 0.0 | 0.00 | 0.23 | 0.20 | 85 | 1013.8 |
| 20260901203154 | 25 | 141 | 0.0 | 0.0 | 0.00 | 0.23 | 0.20 | 85 | 1013.7 |
| 20260901201629 | 25 | 143 | 0.0 | 0.0 | 0.00 | 0.23 | 0.20 | 85 | 1013.6 |
| 20260901200145 | 25 | 144 | 0.0 | 0.0 | 0.00 | 0.23 | 0.20 | 85 | 1013.5 |
| 20260901194630 | 25 | 151 | 0.0 | 0.0 | 0.00 | 0.23 | 0.20 | 86 | 1013.6 |
| 20260901193136 | 25 | 151 | 0.0 | 0.0 | 0.00 | 0.23 | 0.20 | 86 | 1013.7 |
| 20260901191651 | 25 | 151 | 0.0 | 0.0 | 0.00 | 0.23 | 0.20 | 88 | 1013.7 |
| 20260901190129 | 25 | 151 | 0.0 | 0.0 | 0.00 | 0.23 | 0.20 | 88 | 1013.6 |
| 20260901184635 | 25 | 151 | 0.0 | 1.6 | 0.00 | 0.23 | 0.20 | 88 | 1013.6 |
| 20260901183150 | 25 | 169 | 0.0 | 1.6 | 0.00 | 0.23 | 0.20 | 87 | 1013.5 |
| 20260901181626 | 25 | 162 | 0.0 | 1.6 | 0.00 | 0.23 | 0.20 | 88 | 1013.3 |
| 20260901180130 | 25 | 148 | 0.0 | 1.6 | 0.00 | 0.23 | 0.20 | 87 | 1013.0 |
| 20260901174625 | 25 | 155 | 0.0 | 1.6 | 0.00 | 0.23 | 0.20 | 89 | 1012.9 |
| 20260901173140 | 25 | 150 | 0.0 | 0.0 | 0.00 | 0.23 | 0.20 | 88 | 1013.1 |
| 20260901171636 | 25 | 147 | 0.0 | 3.2 | 0.00 | 0.23 | 0.20 | 87 | 1012.8 |
| 20260901170135 | 25 | 129 | 0.0 | 1.6 | 0.00 | 0.23 | 0.20 | 88 | 1012.8 |
| 20260901164645 | 25 | 128 | 0.0 | 1.6 | 0.00 | 0.23 | 0.20 | 89 | 1012.8 |
| 20260901163136 | 24 | 129 | 0.0 | 1.6 | 0.00 | 0.23 | 0.20 | 92 | 1012.8 |
| 20260901161625 | 23 | 125 | 1.6 | 3.2 | 0.00 | 0.23 | 0.20 | 93 | 1012.8 |
| 20260901160135 | 23 | 120 | 0.0 | 1.6 | 0.00 | 0.23 | 0.20 | 95 | 1012.7 |
| 20260901154643 | 22 | 110 | 0.0 | 0.0 | 0.00 | 0.23 | 0.20 | 97 | 1012.8 |
| 20260901153130 | 22 | 110 | 0.0 | 1.6 | 0.00 | 0.23 | 0.20 | 98 | 1013.0 |
| 20260901151707 | 21 | 86 | 0.0 | 1.6 | 0.00 | 0.23 | 0.20 | 98 | 1012.8 |
| 20260901150133 | 21 | 121 | 0.0 | 0.0 | 0.00 | 0.23 | 0.20 | 97 | 1013.0 |
| 20260901144627 | 20 | 121 | 0.0 | 0.0 | 0.00 | 0.23 | 0.20 | 97 | 1013.2 |
| 20260901143148 | 20 | 122 | 0.0 | 1.6 | 0.00 | 0.23 | 0.20 | 97 | 1013.3 |
| 20260901141645 | 20 | 117 | 0.0 | 0.0 | 0.00 | 0.23 | 0.20 | 98 | 1013.2 |
| 20260901140140 | 20 | 117 | 0.0 | 0.0 | 0.00 | 0.23 | 0.20 | 97 | 1013.1 |
| 20260901134638 | 21 | 117 | 0.0 | 0.0 | 0.00 | 0.23 | 0.20 | 97 | 1013.0 |
| 20260901133137 | 21 | 117 | 0.0 | 0.0 | 0.00 | 0.23 | 0.20 | 98 | 1013.0 |
| 20260901131631 | 21 | 117 | 0.0 | 0.0 | 0.00 | 0.23 | 0.20 | 98 | 1013.1 |
| 20260901130146 | 20 | 117 | 0.0 | 0.0 | 0.00 | 0.23 | 0.20 | 98 | 1013.2 |
| 20260901124656 | 20 | 117 | 0.0 | 0.0 | 0.00 | 0.23 | 0.20 | 98 | 1013.1 |
| 20260901123131 | 20 | 117 | 0.0 | 0.0 | 0.00 | 0.23 | 0.20 | 98 | 1013.5 |
| 20260901121645 | 20 | 117 | 0.0 | 0.0 | 0.00 | 0.23 | 0.20 | 98 | 1013.4 |
| 20260901120145 | 20 | 117 | 0.0 | 0.0 | 0.00 | 0.23 | 0.20 | 98 | 1013.6 |
| 20260901114652 | 19 | 117 | 0.0 | 0.0 | 0.00 | 0.23 | 0.20 | 97 | 1013.4 |
| 20260901113134 | 19 | 117 | 0.0 | 0.0 | 0.00 | 0.23 | 0.20 | 97 | 1013.9 |
| 20260901111629 | 19 | 117 | 0.0 | 0.0 | 0.00 | 0.23 | 0.20 | 97 | 1013.6 |
| 20260901110128 | 19 | 117 | 0.0 | 0.0 | 0.00 | 0.23 | 0.20 | 97 | 1013.6 |
| 20260901104625 | 19 | 117 | 0.0 | 0.0 | 0.03 | 0.23 | 0.20 | 97 | 1013.5 |